Weather observations for the past three days for
Indianapolis International Airport
Imperial (Metric)
Date Time (edt) Wind (mph) Vis. (mi.) Weather Sky Cond. Temperature (ºF) Relative Humidity Wind Chill (°F) Heat Index (°F) Pressure Precipitation (in)
Air Dwpt 6 hour altimeter (in) sea level (mb) 1 hr 3 hr 6 hr
Max. Min.
16 18:54 S 14 10.00 A Few Clouds FEW055 90 66.9 47% 93 29.94 1013.1
16 17:54 S 14 G 25 10.00 A Few Clouds FEW055 90 66 45% 93 29.94 1013.2
16 16:54 S 17 10.00 A Few Clouds FEW050 90 66.9 47% 93 29.95 1013.4
16 15:54 S 16 G 23 10.00 A Few Clouds FEW070 90 68 48% 94 29.96 1013.8
16 14:54 S 14 G 23 10.00 A Few Clouds FEW070 89.1 66 47% 92 29.99 1014.8
16 13:54 S 9 10.00 Partly Cloudy FEW050 SCT075 87.1 64.9 87.1 66.9 48% 89 30.01 1015.5
16 12:54 SE 12 10.00 Partly Cloudy SCT050 SCT075 84 63 49% 85 30.02 1016.0
16 11:54 SE 9 10.00 Partly Cloudy SCT065 82 60.1 47% 82 30.04 1016.5
16 10:54 SE 8 10.00 Partly Cloudy SCT065 79 57 47% 80 30.04 1016.5
16 09:54 SE 9 10.00 Partly Cloudy FEW060 SCT250 75.9 54 47% 78 30.05 1016.9
16 08:54 SE 8 10.00 A Few Clouds FEW250 72 54 53% 30.04 1016.8
16 07:54 E 7 10.00 Partly Cloudy SCT250 66 53.1 69.1 63 63% 30.05 1016.9
16 06:54 E 7 10.00 Fair CLR 64 51.1 63% 30.04 1016.7
16 05:54 E 6 10.00 Fair CLR 63 51.1 65% 30.03 1016.4
16 04:54 E 6 10.00 Fair CLR 64.9 51.1 61% 30.03 1016.3
16 03:54 E 7 10.00 A Few Clouds FEW250 64.9 51.1 61% 30.03 1016.4
16 02:54 SE 7 10.00 A Few Clouds FEW250 66.9 51.1 57% 30.05 1016.9
16 01:54 SE 7 10.00 Partly Cloudy SCT250 69.1 50 82 69.1 51% 30.05 1016.9
16 00:54 SE 7 10.00 Partly Cloudy SCT250 71.1 50 47% 30.04 1016.7
15 23:54 SE 8 10.00 Partly Cloudy SCT250 72 48.9 44% 30.04 1016.5
15 22:54 SE 9 10.00 Partly Cloudy SCT250 73.9 48 40% 30.04 1016.5
15 21:54 E 8 10.00 Mostly Cloudy BKN250 75.9 48 37% 78 30.04 1016.6
15 20:54 E 7 10.00 Mostly Cloudy BKN250 78.1 48.9 36% 79 30.05 1016.9
15 19:54 E 10 10.00 Mostly Cloudy BKN250 82 46.9 84.9 81 29% 80 30.05 1017.1
15 18:54 E 10 10.00 Mostly Cloudy BKN250 82.9 46.9 28% 81 30.06 1017.3
15 17:54 SE 13 10.00 Mostly Cloudy BKN250 84.9 48 28% 83 30.06 1017.3
15 16:54 Vrbl 5 G 18 10.00 Mostly Cloudy FEW070 BKN250 84 50 31% 82 30.07 1017.7
15 15:54 SE 15 G 21 10.00 Partly Cloudy FEW070 SCT250 84 51.1 32% 82 30.08 1017.8
15 14:54 SE 6 G 18 10.00 Partly Cloudy SCT250 82.9 51.1 33% 81 30.1 1018.6
15 13:54 SE 10 10.00 Partly Cloudy SCT250 82.9 52 82.9 68 34% 82 30.11 1018.8
15 12:54 S 13 G 21 10.00 A Few Clouds FEW250 80.1 51.1 37% 80 30.12 1019.3
15 11:54 SE 10 10.00 A Few Clouds FEW250 78.1 48.9 36% 79 30.13 1019.6
15 10:54 E 16 10.00 A Few Clouds FEW250 75 48.9 40% 77 30.13 1019.5
15 09:54 E 13 10.00 A Few Clouds FEW250 72 48.9 44% 30.14 1019.9
15 08:54 E 13 10.00 A Few Clouds FEW250 70 53.1 55% 30.13 1019.8
15 07:54 E 12 10.00 A Few Clouds FEW250 68 54 70 66.9 61% 30.11 1018.8
15 06:54 E 8 10.00 Fair CLR 66.9 54 63% 30.1 1018.5
15 05:54 E 8 10.00 Fair CLR 68 53.1 59% 30.07 1017.6
15 04:54 E 9 10.00 Fair CLR 69.1 53.1 57% 30.04 1016.6
15 03:54 E 7 10.00 Fair CLR 69.1 53.1 57% 30.03 1016.3
15 02:54 NE 7 10.00 A Few Clouds FEW250 69.1 52 55% 30.03 1016.3
15 01:54 NE 8 10.00 Partly Cloudy SCT230 69.1 51.1 82.9 69.1 53% 30.03 1016.3
15 00:54 N 8 10.00 Fair CLR 71.1 50 47% 30.03 1016.3
14 23:54 N 3 10.00 Fair CLR 73 52 48% 30.02 1015.8
14 22:54 NW 7 10.00 A Few Clouds FEW250 72 53.1 52% 30.01 1015.6
14 21:54 NW 8 10.00 A Few Clouds FEW070 FEW250 75 52 45% 78 30 1015.1
14 20:54 N 9 10.00 A Few Clouds FEW070 80.1 51.1 37% 80 29.99 1014.7
14 18:54 N 14 10.00 A Few Clouds FEW070 84.9 52 32% 83 29.96 1013.9
14 17:54 NW 14 10.00 Partly Cloudy SCT038 86 55.9 36% 85 29.96 1013.8
14 16:54 NW 13 10.00 Partly Cloudy SCT038 87.1 59 39% 86 29.96 1013.7
14 15:54 N 14 10.00 Mostly Cloudy BKN038 86 61 43% 86 29.95 1013.6
14 14:54 N 13 G 23 10.00 Mostly Cloudy BKN038 86 66 51% 88 29.95 1013.5
14 13:54 N 9 10.00 Mostly Cloudy BKN035 84.9 68 84.9 70 57% 88 29.96 1013.7
14 12:54 N 7 G 20 10.00 A Few Clouds FEW033 FEW120 82.9 68 61% 86 29.95 1013.6
14 11:54 NW 9 10.00 Partly Cloudy FEW033 FEW050 SCT120 81 66 61% 83 29.95 1013.2
14 10:54 NW 7 10.00 A Few Clouds FEW045 FEW120 79 66 65% 81 29.94 1013.2
14 09:54 W 5 10.00 Partly Cloudy FEW045 SCT120 75.9 64.9 69% 78 29.95 1013.4
14 08:54 Calm 10.00 Mostly Cloudy FEW045 BKN120 73.9 64.9 74% 29.94 1013.1
14 07:54 SW 5 10.00 Mostly Cloudy FEW045 SCT120 SCT180 BKN250 70 64.9 70 66 84% 29.92 1012.6
14 06:54 S 7 10.00 Mostly Cloudy FEW055 SCT070 SCT120 BKN250 66.9 64.9 93% 29.91 1012.1
14 05:54 SW 6 10.00 Mostly Cloudy FEW055 SCT070 BKN120 66.9 64.9 93% 29.91 1012.2
14 04:54 SW 8 10.00 Overcast SCT120 OVC150 66.9 64.9 93% 29.93 1012.8
14 03:54 Calm 10.00 Overcast BKN120 OVC150 66.9 64.9 93% 29.93 1012.7
14 02:54 S 5 10.00 Light Rain FEW055 SCT100 BKN120 OVC150 66.9 64.9 93% 29.94 1013.3
14 01:54 E 9 10.00 Light Rain FEW050 BKN080 BKN110 OVC150 68 66 82.9 66.9 93% 29.92 1012.3 0.1 0.25
14 00:54 NE 12 G 38 6.00 Thunderstorm Light Rain Fog/Mist BKN031CB OVC060 66.9 64 91% 30.02 1015.8 0.15
13 23:54 SW 12 10.00 Overcast FEW034 BKN080 BKN100 OVC150 78.1 59 52% 79 29.94 1013.1
13 22:54 S 9 10.00 Mostly Cloudy BKN080 BKN250 79 59 50% 80 29.93 1012.6
13 20:54 S 12 10.00 Mostly Cloudy BKN080 BKN250 81 57 44% 81 29.91 1012.0
13 19:54 S 16 10.00 Partly Cloudy SCT090 SCT250 82.9 55.9 87.1 82.9 40% 82 29.9 1011.7
Date Time (edt) Wind (mph) Vis. (mi.) Weather Sky Cond. Air Dwpt Max. Min. Relative Humidity Wind Chill (°F) Heat Index (°F) altimeter (in) sea level (mb) 1 hr 3 hr 6 hr
6 hour
Temperature (ºF) Pressure Precipitation (in)